Showing default

SKYSAT C12, 43797

Orbit data source: Space-Track

SKYSAT C12, 43797 is a payload satellite owned by Terra Bella (US) in SSO that was launched on Mon, 03 Dec 2018 UTC via an FALCON 9 launch vehicle from the Air Force Western Test Range (AFWTR). Payload-class satellites include a variety of spacecraft equipped with specific instruments for various scientific and technological missions. These include communications satellites like Starlink; space stations such as the ISS; scientific satellites like the Hubble; Earth observation satellites from companies like Planet Labs, Umbra, and HawkEye 360; GPS; miniature CubeSats for education and research; and military/defense satellites.

Loading next visibility...
Identifier
43797, 2018-099AR
Orbit
SSO
Country
Flag of USUS
Related business
Manufacturer
Maxar SSL
Mission
Operational Commercial Imaging
Bus & Motor
SKYSAT-GEN2, Unknown motor
Mass
110 kg wet, 110 kg dry
Launch date (UTC)
2018-12-03 (8 years ago)
Launch vehicle
FALCON 9
Launch site
Air Force Western Test Range (AFWTR)
Object type
Payload
Rocket body
Debris
Shape & HBR
Box, 1.0 m
Radar Cross Section
0.888 m², Medium (>0.1 m² and < 1m²)

Expand to show TLE details & history
Last TLE update: 3 days ago

TLE from 3 days ago
0 SKYSAT C12
1 43797U 18099AR  26170.61404544  .00014297  00000-0  26587-3 0  9995
2 43797  96.9259 193.7541 0005746 130.0767 230.0990 15.48963500422235
Epoch: 2026-06-19T14:44Z
TLE epoch observation values (Epoch: 2026-06-19T14:44:13.526Z)
Latitude
0.00003°
Longitude
64.85724°
Altitude
425.407 km
Speed
7.655 km/s
True Right ascension
12h 55m 00s
True Declination
0° 00' 00"
Sunlit
Object was in daylight at epoch
Visualization orbit readout
Latitude
Unknown
Longitude
Unknown
Altitude
Unknown
Speed
Unknown
Apparent Right ascension
Unknown
Apparent Declination
Unknown
Sunlit
N/A
Visualization observer readout
Local Sidereal Time
21:38:53
Azimuth
Unknown
Elevation
Unknown
Doppler factor
Unknown
Orbital elements
Apogee altitude
420.568 km
Perigee altitude
412.76 km
Semi-major axis
6,794.801 km
Eccentricity
0.00057
Inclination
96.9259°
RAAN
193.7541°
Arg. of periapsis
130.0767°
True anomaly
230.04851°
Mean anomaly
230.099°
Eccentric anomaly
230.07375°
Mean motion
3.87506 °/min
Orbital period
92.9 mins
BSTAR
0.00026587
Loading maneuver chart data...
Computing Atmospheric mass density...
Loading historical data...
Loading historical data...
Loading historical data...
Loading historical data...
Loading historical data...
Loading historical data...
Loading historical data...

Documentation

Showing up to 5 results
|